SCP
0 0 0 0 0 0 0 0 0 0 0 0 0 0 0 0 0 0 0 0 0 0 0 0 0 0 0 0 0 0 0 0 0 0 0 0 0 0 0 0 0 0 0 0
0 0 0 0 0 0 0 0 0 0 0 0 0 0 0 0 0 0 0 0 0 0 0 0 0 0 0 0 0 0 0 0 0 0 0 0 0 0 0 0 0 0 0 0
0 0 0 0 0 0 0 0 0 0 0 0 0 0 0 0 0 0 0 0 0 0 0 0 0 0 0 0 0 0 0 0 0 0 0 0 0 0 0 0 0 0 0 0
0 0 0 0 0 0 0 0 0 0 0 0 0 0 0 0 0 0 0 0 0 0 0 0 0 0 0 0 0 0 0 0 0 0 0 0 0 0 0 0 0 0 0 0
0 0 0 0 0 0 0 0 0 0 0 0 0 0 0 0 0 0 0 0 0 0 0 0 0 0 0 0 0 0 0 0 0 0 0 0 0 0 0 0 0 0 0 0
0 0 0 0 0 0 0 0 0 0 0 0 0 0 0 0 0 0 0 0 0 0 0 0 0 0 0 0 0 0 0 0 0 0 0 0 0 0 0 0 0 0 0 0
0 0 0 0 0 0 0 0 0 0 0 0 0 0 0 0 0 0 0 0 0 0 0 0 0 0 0 0 0 0 0 0 0 0 0 0 0 0 0 0 0 0 0 0
0 0 0 0 0 0 0 0 0 0 0 0 0 0 0 0 0 0 0 0 0 0 0 0 0 0 0 0 0 0 0 0 0 0 0 0 0 0 0 0 0 0 0 0
0 0 0 0 0 0 0 0 0 0 0 0 0 0 0 0 0 0 0 0 0 0 0 0 0 0 0 0 0 0 0 0 0 0 0 0 0 0 0 0 0 0 0 0
0 0 0 0 0 0 0 0 0 0 0 0 0 0 0 0 0 0 0 0 0 0 0 0 0 0 0 0 0 0 0 0 0 0 0 0 0 0 0 0 0 0 0 0
0 0 0 0 0 0 0 0 0 0 0 0 0 0 0 0 0 0 0 0 0 0 0 0 0 0 0 0 0 0 0 0 0 0 0 0 0 0 0 0 0 0 0 0
0 0 0 0 0 0 0 0 0 0 0 0 0 0 0 0 0 0 0 0 0 0 0 0 0 0 0 0 0 0 0 0 0 0 0 0 0 0 0 0 0 0 0 0
0 0 0 0 0 0 0 0 0 0 0 0 0 0 0 0 0 0 0 0 0 0 0 0 0 0 0 0 0 0 0 0 0 0 0 0 0 0 0 0 0 0 0 0
0 0 0 0 0 0 0 0 0 0 0 0 0 0 0 0 0 0 0 0 0 0 0 0 0 0 0 0 0 0 0 0 0 0 0 0 0 0 0 0 0 0 0 0
0 0 0 0 0 0 0 0 0 0 0 0 0 0 0 0 0 0 0 0 0 0 0 0 0 0 0 0 0 0 0 0 0 0 0 0 0 0 0 0 0 0 0 0
0 0 0 0 0 0 0 0 0 0 0 0 0 0 0 0 0 0 0 0 0 0 0 0 0 0 0 0 0 0 0 0 0 0 0 0 0 0 0 0 0 0 0 0
0 0 0 0 0 0 0 0 0 0 0 0 0 0 0 0 0 0 0 0 0 0 0 0 0 0 0 0 0 0 0 0 0 0 0 0 0 0 0 0 0 0 0 0
0 0 0 0 0 0 0 0 0 0 0 0 0 0 0 0 0 0 0 0 0 0 0 0 0 0 0 0 0 0 0 0 0 0 0 0 0 0 0 0 0 0 0 0
0 0 0 0 0 0 0 0 0 0 0 0 0 0 0 0 0 0 0 0 0 0 0 0 0 0 0 0 0 0 0 0 0 0 0 0 0 0 0 0 0 0 0 0
0 0 0 0 0 0 0 0 0 0 0 0 0 0 0 0 0 0 0 0 0 0 0 0 0 0 0 0 0 0 0 0 0 0 0 0 0 0 0 0 0 0 0 0
0 0 0 0 0 0 0 0 0 0 0 0 0 0 0 0 0 0 0 0 0 0 0 0 0 0 0 0 0 0 0 0 0 0 0 0 0 0 0 0 0 0 0 0
0 0 0 0 0 0 0 0 0 0 0 0 0 0 0 0 0 0 0 0 0 0 0 0 0 0 0 0 0 0 0 0 0 0 0 0 0 0 0 0 0 0 0 0
0 0 0 0 0 0 0 0 0 0 0 0 0 0 0 0 0 0 0 0 0 0 0 0 0 0 0 0 0 0 0 0 0 0 0 0 0 0 0 0 0 0 0 0
0 0 0 0 0 0 0 0 0 0 0 0 0 0 0 0 0 0 0 0 0 0 0 0 0 0 0 0 0 0 0 0 0 0 0 0 0 0 0 0 0 0 0 0
0 0 0 0 0 0 0 0 0 0 0 0 0 0 0 0 0 0 0 0 0 0 0 0 0 0 0 0 0 0 0 0 0 0 0 0 0 0 0 0 0 0 0 0
0 0 0 0 0 0 0 0 0 0 0 0 0 0 0 0 0 0 0 0 0 0 0 0 0 0 0 0 0 0 0 0 0 0 0 0 0 0 0 0 0 0 0 0
Wind_Speed
13 12 16 16 17 15 12 10 9 7 5 6 8 10 10 9 8 9 9 9 9 9 8 7 9 9 9 9 10 13 13 12 10 9 9 8 7 6 5 5 7 8 7 6
13 20 19 16 16 16 16 13 11 7 4 5 7 10 10 11 12 11 11 10 9 8 6 5 6 8 9 10 10 12 13 13 11 9 8 7 6 5 5 5 6 7 7 7
25 16 18 18 17 16 15 13 11 8 5 6 6 10 13 13 13 12 10 9 8 8 7 5 6 7 8 9 10 10 12 12 12 10 7 6 5 4 4 5 5 6 7 7
21 20 18 19 18 16 13 11 10 8 7 6 6 8 8 9 10 10 10 8 7 6 5 5 6 7 8 8 9 9 10 12 12 12 11 12 9 7 6 6 5 6 7 7
14 17 19 19 17 16 10 7 7 7 7 9 9 9 8 9 10 9 9 8 6 4 4 5 6 7 7 7 8 8 9 10 11 12 12 12 8 6 6 7 8 6 6 7
16 14 16 17 12 11 8 5 4 5 5 11 12 11 8 8 9 5 5 5 5 4 4 5 5 5 6 6 7 7 9 9 10 11 12 12 11 10 10 10 9 7 5 5
19 18 15 11 13 12 10 7 5 6 7 9 9 10 8 6 4 3 3 3 4 4 4 5 6 6 7 8 8 7 9 9 11 12 12 12 11 11 12 11 10 9 6 5
18 17 16 11 13 12 14 14 10 8 6 5 7 9 6 5 5 4 3 3 3 4 4 4 5 6 7 9 9 9 9 9 10 11 11 10 10 9 8 9 9 9 7 6
16 15 14 13 11 12 16 16 12 7 7 5 5 6 7 6 5 5 5 4 4 5 5 5 6 6 8 9 9 9 10 9 10 11 10 9 10 9 9 9 8 7 7 7
10 12 15 16 11 14 12 11 7 9 6 7 7 9 8 8 8 7 6 5 5 6 6 6 6 7 7 8 9 9 9 10 9 10 9 8 9 9 9 9 9 9 9 9
16 10 10 14 19 19 15 16 10 8 8 5 5 5 5 7 8 7 6 5 6 6 6 6 6 7 7 8 9 9 9 9 9 10 9 9 8 9 9 9 9 9 8 10
17 7 8 10 9 11 17 18 15 10 8 8 5 5 1 5 7 7 6 6 6 6 6 6 7 7 7 8 8 8 8 9 9 9 9 9 8 9 9 9 9 9 10 9
14 7 8 7 9 12 13 16 17 13 9 8 9 6 4 5 6 6 6 6 6 7 6 6 7 7 8 8 8 8 8 8 9 9 9 9 9 10 10 9 9 10 10 9
10 7 10 13 9 14 15 16 17 16 13 13 13 9 5 6 7 7 7 7 7 8 8 8 7 7 8 8 8 9 9 9 9 9 9 10 10 10 10 9 9 9 10 9
4 9 10 11 9 15 19 19 20 21 17 13 13 13 10 8 8 7 7 7 7 7 8 8 8 7 8 8 8 9 9 9 9 9 9 9 9 9 9 9 9 9 9 9
3 6 10 13 13 10 12 18 20 21 19 17 13 13 7 6 4 4 5 5 5 5 6 7 8 8 8 9 9 9 9 9 9 9 9 9 9 9 9 9 9 9 8 7
5 5 8 11 12 9 14 16 17 17 17 17 18 14 7 7 7 6 5 5 5 5 5 7 8 8 8 8 9 9 9 8 9 9 8 9 9 9 9 9 9 9 8 7
10 9 5 6 9 14 11 10 13 15 15 15 13 9 9 8 6 5 4 5 5 5 6 6 6 6 6 7 7 8 8 9 9 8 8 9 9 9 8 9 9 8 7 7
14 12 6 5 7 8 6 11 15 15 15 13 13 11 9 6 3 4 4 4 4 4 5 5 5 6 6 7 8 8 8 8 8 8 8 9 9 9 9 9 8 6 6 5
13 11 7 6 7 10 7 9 8 8 12 11 12 12 10 8 7 6 4 4 5 6 6 5 5 6 6 6 8 9 8 8 8 8 8 8 8 9 8 8 6 5 5 5
13 12 12 8 6 8 5 8 11 10 10 8 12 11 10 10 8 6 7 6 7 7 7 6 6 6 5 6 8 8 7 7 7 7 7 7 7 7 7 6 5 5 4 4
10 10 13 10 8 8 4 9 11 6 2 4 6 8 8 8 9 9 8 8 8 7 7 7 7 6 5 7 8 8 7 6 8 8 8 7 7 6 6 6 5 5 5 4
10 10 7 10 9 4 8 7 6 3 3 3 3 4 9 9 9 9 8 8 7 7 7 6 7 7 6 6 8 8 7 8 8 8 7 7 7 5 5 5 5 4 4 3
6 6 6 6 7 7 6 5 4 2 3 4 5 6 8 8 10 9 9 8 7 7 7 7 8 8 6 6 7 8 8 8 8 8 7 6 6 5 4 3 3 3 3 3
6 4 6 7 5 6 7 8 6 4 4 5 5 5 7 10 10 9 9 8 8 7 6 7 7 8 8 8 8 7 7 8 8 8 6 5 4 4 3 3 3 3 4 5
7 8 10 7 5 4 6 7 6 6 7 7 7 5 5 8 10 9 9 8 8 8 7 8 8 9 8 8 8 7 6 7 8 7 5 4 3 3 2 2 0 2 3 5
Wind_Direction
196 206 212 212 215 231 246 249 244 239 183 185 223 244 250 252 245 242 241 240 240 239 229 204 187 176 171 171 165 166 169 175 171 171 174 175 176 167 162 162 165 166 166 168
200 216 216 218 219 222 238 252 261 268 217 206 239 254 257 250 246 238 237 240 242 246 240 205 177 169 170 171 170 168 171 175 176 175 174 170 163 161 158 155 162 164 164 161
213 212 212 221 222 220 225 233 243 256 262 241 253 261 252 249 242 238 233 231 236 235 228 203 179 175 172 175 176 175 174 174 173 165 158 152 141 134 147 160 165 166 161 157
223 222 211 215 223 219 226 223 238 255 268 264 247 271 256 256 246 234 223 218 227 229 211 186 178 179 179 178 171 173 172 171 170 165 167 167 169 168 171 164 161 161 158 153
217 211 216 217 216 216 222 218 228 240 254 263 260 269 258 240 241 229 209 203 203 197 186 181 180 182 175 165 163 167 168 169 168 169 170 173 172 166 151 153 157 158 152 149
236 221 218 220 216 212 205 204 233 248 248 249 235 242 263 228 228 208 187 179 174 179 180 173 171 161 156 151 153 160 165 170 169 171 174 178 174 167 159 161 163 160 153 150
229 232 224 208 203 202 194 178 198 209 217 237 213 224 242 221 202 179 178 173 165 167 163 164 162 159 156 153 158 166 171 173 172 175 179 183 177 169 166 165 165 161 158 159
210 219 213 206 203 194 197 192 196 196 209 221 200 224 242 217 171 156 168 169 161 152 152 154 157 159 157 159 165 173 178 176 176 178 182 182 174 168 166 165 163 165 163 161
202 215 195 196 199 197 197 207 220 262 286 286 240 230 227 208 175 166 174 170 167 156 150 152 157 161 161 165 173 179 180 179 179 180 181 179 171 166 163 160 157 158 155 152
224 211 195 185 189 217 206 189 194 215 219 241 250 245 238 208 192 183 181 172 160 152 151 157 165 167 165 167 171 178 180 179 177 178 177 173 168 163 158 155 157 155 152 151
234 230 194 181 192 196 200 202 194 198 217 210 230 237 216 185 166 164 165 155 150 156 161 168 168 166 163 163 169 178 179 173 174 174 169 164 164 159 155 156 157 154 151 153
214 224 210 204 206 207 206 207 198 198 206 214 238 262 105 123 134 140 145 149 150 158 164 165 162 162 164 167 172 176 176 172 173 169 165 164 159 155 156 158 157 154 153 156
204 199 187 192 210 214 219 214 210 213 225 221 217 237 193 149 144 149 162 166 165 166 168 164 165 170 173 173 175 176 175 171 168 164 163 161 160 160 161 160 158 155 154 156
201 195 202 202 191 185 205 214 212 210 221 229 230 231 212 180 176 180 187 190 183 177 175 175 178 179 177 175 177 177 176 169 166 164 164 165 167 166 163 160 158 157 156 158
179 213 223 236 223 189 197 206 211 216 218 222 226 229 227 215 203 200 197 195 191 182 180 180 179 178 176 175 176 175 174 170 166 165 168 169 165 161 159 158 157 155 156 159
197 216 225 239 241 228 212 210 212 219 222 230 237 240 231 240 227 214 204 191 194 197 188 180 176 176 177 177 175 172 171 167 163 166 168 162 159 159 159 157 154 152 154 155
220 213 213 227 231 237 233 216 214 218 220 222 231 234 233 245 242 231 215 205 203 196 185 179 176 178 176 174 171 171 167 159 162 164 161 159 158 159 159 155 152 157 161 161
216 223 219 213 206 224 232 203 213 223 226 222 228 223 218 227 231 218 199 200 202 186 173 171 165 165 163 159 158 155 154 156 158 159 159 158 156 156 154 156 161 163 164 167
209 206 213 206 208 237 232 200 201 214 232 220 222 222 218 214 228 238 201 184 184 164 147 142 143 145 146 148 148 144 146 148 154 159 159 157 156 156 158 162 165 163 162 168
199 197 202 206 205 219 216 189 180 191 242 220 212 214 206 181 208 227 176 148 130 115 110 113 115 118 129 138 136 138 144 148 158 157 152 150 151 154 159 161 160 156 159 166
190 192 201 209 218 244 225 169 143 181 229 204 201 202 191 191 194 157 126 112 111 110 109 107 106 111 123 127 127 133 137 148 144 134 134 137 142 146 149 149 148 149 152 159
191 185 193 198 208 229 187 151 172 198 176 167 177 182 173 159 134 128 124 121 118 116 115 112 107 104 105 116 123 125 131 129 122 123 126 129 132 136 141 144 149 153 157 170
203 197 187 196 211 198 170 185 197 157 145 138 136 134 137 137 141 136 135 134 131 128 123 116 116 108 100 106 118 122 124 120 119 119 122 124 124 128 138 147 154 159 164 176
218 208 209 210 216 199 196 200 202 181 144 130 130 131 134 138 142 140 139 137 132 127 126 124 120 116 110 104 106 115 118 118 119 121 123 125 129 134 137 139 149 160 176 189
237 209 229 233 215 187 210 207 193 170 134 123 122 132 143 140 142 144 142 140 136 130 126 124 124 121 115 108 106 110 116 119 119 119 121 122 125 130 134 142 165 178 198 197
224 210 208 224 204 198 212 203 185 169 168 159 144 134 136 142 143 139 138 136 133 131 127 124 122 119 115 112 110 109 112 116 120 121 122 123 124 127 134 145 181 238 234 247